Theta_e
338 344 347 347 347 347 347 347 346 346 345 343 342 340 341 343 343 344 345 345 342 340 338 337 336 335 335 334 334 335 336 335 336 334 334 335 336 336 337 337 338 334 336
340 344 345 346 347 347 347 347 346 345 343 342 341 341 345 345 346 345 343 345 342 340 338 337 336 334 335 334 333 333 334 333 333 331 332 337 336 335 335 335 336 334 335
339 343 345 345 346 346 348 347 345 344 343 341 341 343 345 346 345 344 341 342 341 340 338 336 335 337 335 334 332 332 332 332 331 332 334 331 332 335 335 335 335 335 334
340 344 343 343 344 345 346 346 345 343 342 341 341 344 345 345 345 343 341 339 339 339 337 336 336 333 335 335 334 333 332 330 329 332 331 330 330 333 335 335 334 334 335
339 342 342 342 344 344 345 346 345 344 343 341 343 346 346 344 343 342 340 339 337 337 336 335 335 334 334 334 334 334 331 329 329 330 327 329 331 332 334 334 333 333 334
338 342 340 343 345 344 344 346 345 343 343 344 345 344 344 342 341 340 339 338 336 335 334 333 334 333 332 331 331 331 330 328 330 326 326 325 329 332 331 332 333 333 336
337 343 342 343 344 344 343 345 345 344 344 345 343 343 343 341 340 338 337 337 335 333 332 332 332 331 329 329 327 326 324 323 325 323 324 326 328 332 331 331 331 332 334
337 341 342 337 339 341 342 344 343 344 345 344 345 342 341 341 339 337 336 336 333 333 331 332 330 328 327 327 326 324 323 324 321 323 324 325 326 330 332 331 331 332 333
338 338 340 342 339 334 339 339 341 342 343 343 344 342 340 339 338 338 337 336 333 332 331 331 329 326 326 327 326 325 325 324 320 322 323 323 324 328 331 331 331 331 332
338 336 338 339 339 337 335 334 335 338 339 339 339 336 334 334 334 334 332 335 334 333 332 330 328 327 327 326 325 325 325 325 324 323 324 325 326 328 330 331 331 331 331
336 337 336 336 336 334 331 335 331 332 333 333 333 329 328 335 333 331 329 332 333 332 330 328 327 328 327 326 325 325 323 326 325 324 324 325 326 330 330 331 331 332 331
331 335 335 335 335 334 330 331 338 338 338 338 338 336 334 332 332 330 327 328 330 330 330 328 329 329 326 324 324 325 325 324 324 324 324 325 326 329 331 331 331 332 333
330 333 335 335 336 335 333 332 339 338 338 338 338 337 335 332 331 330 329 328 329 323 326 328 328 326 324 324 325 325 325 325 324 325 325 325 326 329 331 332 332 333 334
322 330 332 334 334 335 336 331 337 337 338 336 336 336 335 330 329 327 326 327 329 329 327 328 327 326 324 325 326 326 326 327 326 327 327 324 326 328 331 332 333 333 334
309 327 331 331 332 333 334 332 333 335 336 336 334 336 333 330 329 328 327 326 327 328 327 327 326 326 324 324 325 326 326 327 327 327 329 321 324 327 330 332 333 333 334
307 311 330 331 332 332 332 333 330 333 336 332 335 335 333 332 331 328 327 326 326 327 326 326 326 324 323 323 325 325 326 327 327 328 329 329 324 326 328 331 331 332 333
309 308 313 331 332 331 331 332 330 332 332 332 334 335 333 333 332 329 328 326 326 327 327 327 327 324 322 323 324 325 326 326 326 326 329 329 329 322 325 328 330 330 332
311 310 309 322 331 330 330 330 330 330 331 331 334 334 334 334 333 330 327 326 327 327 327 326 325 323 323 323 322 323 324 326 326 327 328 328 330 329 325 326 327 328 331
312 312 311 310 328 330 330 330 330 332 331 331 333 333 333 333 332 329 328 327 326 326 325 325 324 323 322 323 323 323 324 325 326 326 327 328 329 328 329 323 322 322 329
312 313 313 309 316 332 330 329 330 331 330 332 334 332 332 333 332 330 328 327 326 326 325 326 324 324 323 323 321 321 324 325 326 328 327 328 327 328 329 330 326 323 325
310 311 313 307 313 330 329 326 326 326 328 330 332 332 332 331 331 330 329 327 327 326 325 325 325 323 323 324 322 322 322 324 325 326 328 326 327 329 329 330 331 329 325
307 309 311 311 311 326 330 328 328 327 328 328 330 332 332 332 331 329 329 328 328 326 325 325 324 323 323 325 320 320 315 319 323 324 325 326 327 328 328 328 328 327 325
303 305 310 313 312 324 330 328 327 327 327 325 326 327 330 332 331 330 328 328 328 328 326 326 326 322 319 321 322 319 314 313 319 322 323 323 322 321 319 318 317 318 316
301 303 308 313 315 322 331 327 325 323 321 324 326 328 329 330 329 330 330 328 328 328 327 328 328 325 324 319 324 323 324 320 313 312 317 315 313 312 313 313 313 311 312
302 304 308 317 318 327 330 327 325 324 325 326 328 327 328 327 327 328 326 327 328 328 328 328 327 326 326 324 323 323 322 320 319 315 310 305 308 309 310 308 306 305 304
305 308 313 318 321 328 327 326 325 324 324 323 319 315 315 316 317 318 320 320 320 323 326 327 326 325 324 324 322 316 318 315 315 314 310 305 303 304 306 308 307 307 305
Wind_Speed
9 18 15 15 14 14 14 14 13 12 11 10 9 9 8 7 8 6 15 13 12 13 13 13 13 12 12 11 10 11 13 12 13 9 10 12 13 13 14 16 14 13 14
11 18 13 14 13 13 14 13 12 12 11 10 9 9 6 4 15 14 14 12 11 12 13 12 11 9 9 9 10 11 10 10 8 4 1 13 12 13 13 14 14 12 12
12 16 16 13 13 12 12 13 12 11 11 10 9 9 10 16 17 16 13 11 11 11 11 11 10 10 8 7 9 10 9 8 4 7 8 4 10 11 12 12 12 11 11
12 16 14 11 12 12 11 13 12 11 10 10 9 10 11 14 15 14 13 11 9 10 10 10 10 8 7 8 8 9 8 6 3 9 3 6 8 10 10 9 8 8 10
11 16 11 12 12 12 11 12 11 11 10 10 10 11 13 12 13 13 11 10 9 8 9 9 8 7 8 8 7 7 6 3 6 9 6 6 5 8 8 9 9 9 9
10 15 14 13 12 12 11 11 12 10 10 10 9 11 12 12 11 11 10 9 9 8 8 8 7 6 7 7 7 6 4 3 9 3 4 4 7 6 7 6 7 7 7
9 15 14 12 11 10 10 10 11 11 10 8 7 9 11 12 11 9 9 8 8 7 7 6 6 5 5 5 5 5 3 4 7 3 2 2 7 5 6 6 6 6 7
5 12 11 10 10 9 9 9 13 12 10 8 6 10 11 12 11 9 8 7 7 6 7 6 5 4 4 4 3 2 2 5 6 2 2 2 5 4 5 5 5 5 7
9 7 8 13 11 7 7 7 9 9 8 8 8 10 10 10 10 9 7 6 7 7 6 6 4 3 3 2 2 1 3 6 8 1 4 1 4 3 4 4 5 5 5
8 6 11 10 11 11 11 9 10 9 9 8 9 10 9 9 8 7 7 6 7 6 6 6 5 3 2 1 1 2 5 8 9 3 3 5 3 4 4 4 3 4 4
6 6 4 6 10 12 11 11 9 9 9 8 9 10 10 8 8 9 5 9 6 5 6 5 4 4 3 6 5 5 7 5 3 3 2 6 1 4 4 4 4 4 2
6 8 5 6 6 9 9 12 11 9 7 10 8 10 8 8 6 5 7 6 6 5 5 5 4 4 6 6 6 8 6 2 4 3 1 5 2 5 5 4 5 6 4
7 7 8 8 8 8 8 8 6 6 8 8 13 11 9 4 4 5 5 6 6 7 6 7 7 7 4 4 4 4 4 4 4 3 2 5 3 5 6 5 6 7 6
7 8 7 9 9 8 6 7 7 7 7 7 9 11 6 5 5 6 5 7 6 6 7 5 4 4 5 5 5 6 6 5 4 3 2 8 5 6 6 6 6 6 7
12 7 9 7 10 8 9 7 7 6 8 9 8 10 9 7 6 6 5 5 5 5 5 6 6 5 5 6 6 6 6 6 6 4 4 9 7 8 9 8 8 7 6
15 13 9 11 10 8 11 11 6 6 10 8 7 10 10 8 7 6 6 6 6 6 6 6 5 5 5 6 6 7 7 7 7 7 5 4 9 9 9 9 9 9 8
15 16 13 10 12 12 12 11 8 7 9 8 8 14 13 10 8 7 7 7 7 6 6 5 5 6 6 6 7 7 7 8 7 8 6 5 5 10 11 11 11 10 8
17 16 17 10 12 14 12 10 8 8 9 8 8 9 12 11 10 9 7 7 7 6 6 6 6 6 6 6 6 6 5 6 7 8 6 5 5 5 7 8 7 7 6
17 17 17 17 16 15 14 10 10 11 9 9 7 7 9 11 11 9 7 6 8 6 7 6 6 7 6 6 6 6 6 6 6 6 7 7 5 3 3 6 5 3 3
19 18 17 15 16 16 12 9 8 9 8 8 8 7 10 9 11 9 7 7 7 6 7 6 8 6 6 6 7 6 6 6 6 6 6 5 4 4 4 3 5 4 4
20 18 16 16 16 11 10 10 9 10 7 7 7 11 10 9 11 10 8 8 8 7 8 8 7 8 6 6 6 6 7 8 7 5 5 4 5 4 3 3 2 4 4
20 20 19 17 18 13 9 9 9 9 8 8 8 10 12 11 10 10 10 9 9 7 9 8 8 6 6 6 6 6 5 4 5 5 4 4 5 4 3 3 5 5 6
20 20 19 17 18 14 13 8 5 5 3 6 7 7 11 14 13 12 11 9 9 8 7 9 8 8 8 7 10 6 3 5 5 5 5 4 7 7 8 9 9 10 11
22 18 20 21 16 14 14 9 12 8 7 6 7 8 9 12 11 11 10 10 9 7 9 9 8 9 9 9 6 7 10 2 2 0 3 6 8 9 8 7 8 10 10
19 16 18 20 15 11 12 11 9 8 6 4 6 8 7 2 3 6 2 6 9 8 8 8 8 8 9 8 8 4 7 6 4 2 1 3 7 7 6 8 8 9 11
17 10 18 14 9 8 10 8 10 10 6 3 6 8 7 7 6 8 5 6 5 3 5 5 5 4 5 5 4 4 4 2 4 5 3 4 6 7 7 8 7 7 8
Wind_Direction
139 140 155 156 153 147 147 145 142 141 144 144 142 136 137 147 135 118 120 119 114 111 104 101 96 94 90 82 77 65 58 50 50 56 72 66 62 58 50 38 29 44 38
147 145 155 156 157 158 150 148 145 147 154 153 152 140 130 135 147 113 113 112 116 110 108 107 103 93 80 88 93 85 77 67 51 3 71 106 64 59 55 49 41 39 38
163 143 164 156 156 157 155 148 149 155 159 157 156 146 129 116 120 120 116 112 117 115 113 110 105 86 77 99 102 91 80 67 35 303 289 111 81 58 53 52 47 38 33
162 144 165 151 153 158 160 153 154 159 165 167 165 156 144 131 130 131 124 121 120 121 118 115 99 95 89 104 112 97 83 64 334 285 267 55 71 56 53 47 49 26 15
165 142 143 149 157 163 167 161 160 160 163 170 176 163 153 137 132 126 121 119 119 122 125 119 113 102 97 93 100 103 90 53 298 294 59 19 53 55 53 33 34 27 19
174 133 143 150 161 168 174 173 168 166 167 167 171 180 147 132 124 118 120 123 123 126 133 134 121 108 101 93 87 88 76 330 302 45 43 93 58 27 35 39 32 17 358
185 130 161 150 163 172 179 184 181 171 171 162 167 173 141 132 119 123 126 132 135 139 139 136 130 116 101 90 79 74 54 326 310 21 32 9 73 10 35 34 26 12 352
201 134 159 155 161 171 180 206 194 178 169 166 152 152 145 136 128 129 131 135 145 138 151 134 135 124 108 96 79 51 351 311 265 327 356 323 73 358 14 32 21 5 348
213 137 172 179 178 166 173 186 183 175 163 168 155 146 144 131 128 129 128 141 150 146 153 142 144 140 127 103 81 352 310 301 292 351 295 283 70 337 337 19 14 358 346
271 209 177 187 185 192 189 187 190 180 172 170 156 146 137 125 127 131 134 144 151 153 154 162 168 169 169 179 253 281 283 272 263 268 253 75 31 316 307 327 353 342 336
285 266 234 186 198 194 197 191 202 175 171 162 149 141 152 173 173 156 102 133 156 164 176 183 187 198 231 232 222 238 264 250 289 272 272 103 329 308 288 290 301 304 281
274 261 225 210 216 217 198 200 203 188 187 186 172 173 201 210 176 178 134 145 159 167 185 200 213 224 242 249 193 211 238 274 261 272 286 118 266 285 287 281 282 283 265
283 274 243 217 208 208 211 208 201 193 192 193 189 188 214 190 164 198 171 182 192 195 209 199 199 224 250 286 278 272 286 267 264 253 143 153 245 271 274 273 272 278 281
292 255 253 252 220 197 237 220 208 195 204 197 208 192 185 193 192 203 206 196 204 176 225 216 239 246 258 247 259 275 274 278 274 286 226 167 216 252 261 264 268 278 295
307 266 244 243 244 199 209 236 199 235 209 204 193 200 193 195 191 208 215 214 209 210 214 223 226 237 238 248 253 253 263 265 271 274 279 174 202 245 256 259 262 270 278
305 292 237 233 227 218 207 233 213 209 234 217 190 203 213 201 194 199 207 216 224 229 224 227 240 238 234 236 247 252 260 267 268 268 267 228 192 217 244 255 259 266 270
303 296 275 223 217 212 212 214 213 203 237 215 203 209 203 208 203 207 211 216 220 228 234 236 243 242 248 240 242 253 253 256 262 264 259 262 223 206 216 238 255 261 262
301 292 283 236 211 212 218 211 213 208 211 239 203 210 209 207 209 207 217 222 228 225 222 234 236 239 241 251 257 256 250 248 255 261 264 264 267 286 196 217 237 249 250
306 293 280 272 218 209 218 206 202 221 208 219 216 214 210 212 213 216 217 224 223 228 228 234 232 238 251 245 249 255 265 262 260 254 250 258 268 259 257 150 182 215 255
311 295 282 262 255 205 209 209 202 212 217 217 211 207 213 212 215 217 224 224 226 224 232 228 236 239 238 258 267 268 264 263 257 251 258 244 243 216 223 179 167 163 137
310 301 287 263 251 206 201 198 199 198 200 218 225 213 218 214 214 213 217 225 219 226 229 238 235 237 245 239 263 265 254 245 248 266 238 232 181 194 156 159 170 138 131
310 303 286 263 253 216 197 197 204 190 208 207 212 223 229 230 230 216 212 218 220 222 228 234 235 239 242 243 244 255 277 228 215 218 190 187 162 159 144 81 54 61 75
311 303 287 270 259 227 197 189 186 193 188 200 213 217 222 222 223 221 223 221 221 214 217 222 228 230 242 235 242 244 233 244 153 172 183 67 51 45 49 53 48 50 51
309 297 283 269 248 242 188 177 190 199 199 195 210 215 218 220 224 224 216 230 235 232 218 219 224 224 220 238 229 227 248 138 309 147 95 68 63 53 43 57 59 47 66
303 292 281 261 228 224 179 176 184 201 196 176 213 209 215 137 228 232 230 237 245 240 241 235 242 234 230 226 230 222 231 233 206 217 127 65 63 56 73 61 62 66 60
324 287 276 224 202 188 161 175 180 193 186 163 95 85 77 61 38 36 55 63 36 314 270 255 248 275 252 247 239 0 257 245 217 194 127 98 92 56 43 51 57 74 75